#�ϑ�����,���ϕ���,���ϕ���,�ő啗��,�ő啗����������,�ő�u�ԕ���,�ő�u�ԕ�����������
#(�N����),(m/s)   ,(16����),(m/s)   ,(16����)        ,(m/s)       ,(16����)            
2014/5/23 0:01,0.9,12,0.9,12,2.4,14
2014/5/23 0:02,0.9,12,0.9,12,2.4,16
2014/5/23 0:03,0.9,12,0.9,12,0.8,11
2014/5/23 0:04,0.8,12,0.9,12,1,9
2014/5/23 0:05,0.8,12,0.8,12,2.4,10
2014/5/23 0:06,0.9,12,0.9,12,2.2,11
2014/5/23 0:07,0.9,13,0.9,11,1.1,10
2014/5/23 0:08,0.9,13,0.9,11,1.3,15
2014/5/23 0:09,1,13,1,13,2.4,15
2014/5/23 0:10,1,13,1,13,1.5,14
2014/5/23 0:11,0.9,13,1,13,1,11
2014/5/23 0:12,0.9,12,0.9,13,1.3,11
2014/5/23 0:13,0.9,12,0.9,13,1.1,10
2014/5/23 0:14,0.8,12,0.9,13,0.5,8
2014/5/23 0:15,0.7,12,0.8,13,1.1,10
2014/5/23 0:16,0.6,12,0.7,13,0.6,12
2014/5/23 0:17,0.6,12,0.6,13,1.8,16
2014/5/23 0:18,0.7,13,0.7,13,2,15
2014/5/23 0:19,0.7,13,0.7,13,2.1,15
2014/5/23 0:20,0.7,13,0.7,13,1.6,14
2014/5/23 0:21,0.8,13,0.8,12,1.9,15
2014/5/23 0:22,0.9,14,0.9,12,2.5,15
2014/5/23 0:23,1,14,1,14,2,15
2014/5/23 0:24,1,14,1,14,1.4,15
2014/5/23 0:25,1,14,1,14,0.8,8
2014/5/23 0:26,1,14,1,14,1.1,13
2014/5/23 0:27,1,14,1,14,0.9,6
2014/5/23 0:28,0.9,14,1,14,0.9,6
2014/5/23 0:29,0.9,15,0.9,14,0.9,3
2014/5/23 0:30,0.9,15,0.9,14,2,1
2014/5/23 0:31,0.9,16,0.9,14,2.1,1
2014/5/23 0:32,0.8,16,0.9,14,1,16
2014/5/23 0:33,0.6,16,0.8,14,0.1,16
2014/5/23 0:34,0.7,16,0.7,14,1.6,14
2014/5/23 0:35,0.7,16,0.7,14,1.6,14
2014/5/23 0:36,0.8,16,0.8,14,3.2,15
2014/5/23 0:37,1.1,16,1.1,16,3.6,15
2014/5/23 0:38,1.2,15,1.2,15,3.3,14
2014/5/23 0:39,1.5,15,1.5,15,3.5,16
2014/5/23 0:40,1.5,15,1.5,15,2.7,14
2014/5/23 0:41,1.6,15,1.6,15,3.2,16
2014/5/23 0:42,1.8,15,1.8,15,3.2,16
2014/5/23 0:43,2,15,2,15,3.6,16
2014/5/23 0:44,2.1,15,2.1,15,3.5,15
2014/5/23 0:45,2.2,15,2.2,15,5.4,15
2014/5/23 0:46,2.3,15,2.3,15,3.8,16
2014/5/23 0:47,2.2,15,2.3,15,2.5,15
2014/5/23 0:48,2.1,15,2.2,15,2.4,15
2014/5/23 0:49,2.1,15,2.1,15,3.6,16
2014/5/23 0:50,2,15,2,15,2.5,15
2014/5/23 0:51,1.9,15,2,15,3.9,16
2014/5/23 0:52,1.9,15,1.9,15,3.8,1
2014/5/23 0:53,1.9,16,1.9,15,2.9,16
2014/5/23 0:54,2,16,2,15,4.2,16
2014/5/23 0:55,1.9,16,2,15,3.3,14
2014/5/23 0:56,1.9,16,1.9,15,2.2,15
2014/5/23 0:57,1.9,16,1.9,15,2.6,15
2014/5/23 0:58,1.8,16,1.9,15,1.1,16
2014/5/23 0:59,1.7,16,1.8,15,2.5,16
2014/5/23 1:00,1.7,16,1.7,15,2.7,16
2014/5/23 1:01,2,16,2,16,5.8,16
2014/5/23 1:02,2,16,2,16,5,1
2014/5/23 1:03,2.1,16,2.1,16,4.2,16
2014/5/23 1:04,2,16,2.1,16,4.3,16
2014/5/23 1:05,2.1,16,2.1,16,3.9,15
2014/5/23 1:06,2.2,16,2.2,16,4.8,16
2014/5/23 1:07,2.3,16,2.3,16,3.9,1
2014/5/23 1:08,2.3,16,2.4,16,2,1
2014/5/23 1:09,2.3,16,2.4,16,1.9,15
2014/5/23 1:10,2.4,16,2.4,16,2.7,15
2014/5/23 1:11,2.2,16,2.4,16,2.4,16
2014/5/23 1:12,2,16,2.1,16,1.8,16
2014/5/23 1:13,1.9,16,2,16,2.4,1
2014/5/23 1:14,1.8,16,1.9,16,2.1,16
2014/5/23 1:15,1.6,16,1.7,16,1.4,3
2014/5/23 1:16,1.3,16,1.5,16,1.5,2
2014/5/23 1:17,1.2,16,1.3,16,1.1,15
2014/5/23 1:18,1.2,16,1.2,16,2.2,14
2014/5/23 1:19,1.2,16,1.2,16,3.3,15
2014/5/23 1:20,1.3,16,1.3,16,4.8,16
2014/5/23 1:21,1.4,16,1.4,16,3.3,16
2014/5/23 1:22,1.4,16,1.5,16,2.2,15
2014/5/23 1:23,1.4,16,1.4,16,1.9,16
2014/5/23 1:24,1.4,16,1.4,16,1.5,16
2014/5/23 1:25,1.4,15,1.4,16,2,16
2014/5/23 1:26,1.5,15,1.5,16,2,1
2014/5/23 1:27,1.6,16,1.6,16,2.5,1
2014/5/23 1:28,1.6,16,1.6,16,2.4,16
2014/5/23 1:29,1.6,16,1.6,16,2.9,16
2014/5/23 1:30,1.4,16,1.6,16,1.8,15
2014/5/23 1:31,1.4,16,1.4,16,2.9,16
2014/5/23 1:32,1.4,16,1.4,16,2,16
2014/5/23 1:33,1.4,16,1.4,16,0.9,14
2014/5/23 1:34,1.3,16,1.4,16,1.1,14
2014/5/23 1:35,1.2,16,1.3,16,0.8,16
2014/5/23 1:36,1.2,16,1.2,16,0.5,1
2014/5/23 1:37,1,16,1.1,16,0.9,1
2014/5/23 1:38,0.9,16,1,16,0.8,1
2014/5/23 1:39,0.9,16,0.9,16,2.4,14
2014/5/23 1:40,1,16,1,16,3.5,14
2014/5/23 1:41,1,16,1.1,16,3.8,16
2014/5/23 1:42,1.3,16,1.3,16,4.5,16
2014/5/23 1:43,1.4,16,1.4,16,3.3,16
2014/5/23 1:44,1.5,16,1.5,16,2.5,14
2014/5/23 1:45,1.6,16,1.6,16,2.5,14
2014/5/23 1:46,1.6,16,1.6,16,2.1,4
2014/5/23 1:47,1.9,16,1.9,16,5.7,1
2014/5/23 1:48,2.2,16,2.2,16,4.9,1
2014/5/23 1:49,2.2,16,2.2,16,3.2,2
2014/5/23 1:50,2.3,16,2.3,16,5,1
2014/5/23 1:51,2.3,16,2.4,16,3.9,1
2014/5/23 1:52,2.1,16,2.3,16,3.3,16
2014/5/23 1:53,2.1,16,2.1,16,3.6,1
2014/5/23 1:54,2.3,1,2.3,16,6.7,16
2014/5/23 1:55,2.7,1,2.7,1,7.4,16
2014/5/23 1:56,3,1,3,1,5.5,1
2014/5/23 1:57,3.2,16,3.2,16,6.4,16
2014/5/23 1:58,3.1,16,3.2,16,7.1,15
2014/5/23 1:59,3.4,16,3.4,16,7,16
2014/5/23 2:00,3.4,16,3.4,16,5.4,16
2014/5/23 2:01,3.4,16,3.4,16,3.7,15
2014/5/23 2:02,3.4,16,3.4,16,3.1,16
2014/5/23 2:03,3.3,16,3.3,16,3,15
2014/5/23 2:04,3.2,16,3.4,16,3,1
2014/5/23 2:05,2.9,16,3.2,16,2.7,14
2014/5/23 2:06,2.6,16,2.9,16,2.4,15
2014/5/23 2:07,2.4,16,2.6,16,2.7,15
2014/5/23 2:08,2.3,16,2.4,16,3.8,14
2014/5/23 2:09,2.1,15,2.3,16,4.8,14
2014/5/23 2:10,2,15,2.1,16,3.5,16
2014/5/23 2:11,2,15,2,16,4.5,15
2014/5/23 2:12,2.2,15,2.2,16,4.5,16
2014/5/23 2:13,2.3,15,2.3,16,6,15
2014/5/23 2:14,2.3,15,2.3,16,4.7,1
2014/5/23 2:15,2.3,15,2.3,16,3,1
2014/5/23 2:16,2.4,15,2.4,16,4.9,15
2014/5/23 2:17,2.5,16,2.5,16,5.1,1
2014/5/23 2:18,2.5,16,2.5,16,4.8,16
2014/5/23 2:19,2.5,16,2.6,16,4.3,16
2014/5/23 2:20,2.4,16,2.5,16,3.1,16
2014/5/23 2:21,2.2,16,2.4,16,2.4,16
2014/5/23 2:22,2.2,16,2.2,16,3.3,12
2014/5/23 2:23,2.1,15,2.2,16,2.9,12
2014/5/23 2:24,1.9,15,2.1,16,1.5,13
2014/5/23 2:25,1.9,15,1.9,16,2,11
2014/5/23 2:26,1.7,14,1.9,16,1.4,13
2014/5/23 2:27,1.6,14,1.7,16,3,16
2014/5/23 2:28,1.5,14,1.6,16,4.4,15
2014/5/23 2:29,1.5,14,1.5,16,4.4,15
2014/5/23 2:30,1.5,14,1.5,16,2,16
2014/5/23 2:31,1.7,14,1.7,16,5.8,16
2014/5/23 2:32,1.8,15,1.8,16,6.3,15
2014/5/23 2:33,2,15,2,15,6.2,16
2014/5/23 2:34,2.2,15,2.2,15,4.3,1
2014/5/23 2:35,2.1,15,2.2,15,2.9,14
2014/5/23 2:36,2.2,15,2.2,15,1.4,14
2014/5/23 2:37,2.1,15,2.2,15,1.6,11
2014/5/23 2:38,2,15,2.1,15,2.4,13
2014/5/23 2:39,2.1,14,2.1,15,2.7,13
2014/5/23 2:40,2.2,14,2.2,15,3.7,14
2014/5/23 2:41,2.1,14,2.2,15,3.9,12
2014/5/23 2:42,2,13,2.1,15,4.7,15
2014/5/23 2:43,1.8,14,1.9,15,3.7,1
2014/5/23 2:44,2,14,2,15,6.8,16
2014/5/23 2:45,2.3,14,2.3,14,5,16
2014/5/23 2:46,2.4,14,2.4,14,5.4,1
2014/5/23 2:47,2.7,15,2.7,15,5.6,15
2014/5/23 2:48,2.9,15,2.9,15,6.9,15
2014/5/23 2:49,3.1,16,3.1,16,7.1,16
2014/5/23 2:50,3.1,16,3.1,16,4.4,16
2014/5/23 2:51,3.1,16,3.1,16,5.2,1
2014/5/23 2:52,3.3,16,3.3,16,6.4,15
2014/5/23 2:53,3.5,16,3.5,16,5.1,16
2014/5/23 2:54,3.3,16,3.4,16,6.3,15
2014/5/23 2:55,3.3,16,3.4,16,6.8,15
2014/5/23 2:56,3.6,16,3.6,16,7.1,16
2014/5/23 2:57,3.7,16,3.7,16,8.5,16
2014/5/23 2:58,3.7,16,3.8,16,6.4,16
2014/5/23 2:59,3.6,16,3.7,16,7.5,16
2014/5/23 3:00,3.9,16,3.9,16,8.1,1
2014/5/23 3:01,4.4,16,4.4,16,9.4,16
2014/5/23 3:02,4.4,16,4.4,16,7.8,16
2014/5/23 3:03,4.2,16,4.4,16,3.8,16
2014/5/23 3:04,4.1,16,4.2,16,4.7,2
2014/5/23 3:05,4.1,16,4.2,16,6.3,15
2014/5/23 3:06,3.9,16,4.1,16,6,16
2014/5/23 3:07,3.8,16,3.9,16,5.7,15
2014/5/23 3:08,3.7,16,3.8,16,4.7,16
2014/5/23 3:09,3.9,16,3.9,16,6.7,16
2014/5/23 3:10,3.8,16,3.8,16,7.8,16
2014/5/23 3:11,3.7,16,3.8,16,8.2,1
2014/5/23 3:12,3.6,16,3.7,16,8.2,16
2014/5/23 3:13,4.1,16,4.1,16,10.7,16
2014/5/23 3:14,4.4,16,4.4,16,8.9,16
2014/5/23 3:15,4.6,16,4.6,16,8.3,15
2014/5/23 3:16,4.7,16,4.7,16,6,16
2014/5/23 3:17,4.7,16,4.7,16,4.9,16
2014/5/23 3:18,4.6,16,4.7,16,4.4,16
2014/5/23 3:19,4.4,16,4.6,16,5.2,1
2014/5/23 3:20,4.4,16,4.5,16,8.1,16
2014/5/23 3:21,4.1,16,4.4,16,5.5,16
2014/5/23 3:22,4,16,4.1,16,2.6,14
2014/5/23 3:23,3.4,15,3.9,16,1.5,14
2014/5/23 3:24,3,15,3.3,16,3.1,15
2014/5/23 3:25,2.7,15,2.9,16,4.2,13
2014/5/23 3:26,2.5,15,2.6,16,3.1,13
2014/5/23 3:27,2.5,15,2.5,16,3.9,15
2014/5/23 3:28,2.6,15,2.6,16,8.4,16
2014/5/23 3:29,2.8,15,2.8,16,9.3,16
2014/5/23 3:30,2.6,14,2.8,16,4.5,15
2014/5/23 3:31,2.5,14,2.6,16,2.5,13
2014/5/23 3:32,2.5,14,2.5,16,5,15
2014/5/23 3:33,2.7,14,2.7,15,4.3,11
2014/5/23 3:34,2.8,14,2.8,15,4.1,12
2014/5/23 3:35,2.6,14,2.7,15,2.1,13
2014/5/23 3:36,2.5,14,2.6,15,2.9,2
2014/5/23 3:37,2.4,14,2.5,15,2.6,10
2014/5/23 3:38,2.3,13,2.4,15,8.1,16
2014/5/23 3:39,2.2,14,2.3,15,8.1,15
2014/5/23 3:40,2.4,14,2.4,14,7.8,15
2014/5/23 3:41,2.8,14,2.8,14,6.9,16
2014/5/23 3:42,3.1,14,3.1,14,9.2,16
2014/5/23 3:43,3.3,15,3.3,15,9.3,15
2014/5/23 3:44,3.6,15,3.6,15,8.3,16
2014/5/23 3:45,4.2,15,4.2,15,9.7,15
2014/5/23 3:46,4.5,15,4.5,15,7.9,16
2014/5/23 3:47,4.8,16,4.8,16,7.4,16
2014/5/23 3:48,4.9,16,5,16,7.2,16
2014/5/23 3:49,4.9,16,4.9,16,6.8,16
2014/5/23 3:50,4.9,16,5,16,7,16
2014/5/23 3:51,4.8,16,4.9,16,6.3,15
2014/5/23 3:52,4.7,16,4.8,16,6.7,16
2014/5/23 3:53,4.5,16,4.7,16,6.1,16
2014/5/23 3:54,4.4,16,4.5,16,6.2,16
2014/5/23 3:55,4.1,16,4.4,16,4.4,16
2014/5/23 3:56,4,16,4.1,16,5.7,16
2014/5/23 3:57,3.8,16,4,16,3.8,15
2014/5/23 3:58,3.6,16,3.8,16,3.9,14
2014/5/23 3:59,3.4,16,3.6,16,4.2,15
2014/5/23 4:00,3.1,16,3.4,16,4.9,16
2014/5/23 4:01,3.2,16,3.2,16,6.4,16
2014/5/23 4:02,3.1,16,3.2,16,4.7,16
2014/5/23 4:03,3,16,3.1,16,7.4,15
2014/5/23 4:04,3,16,3,16,6.3,1
2014/5/23 4:05,3.1,16,3.1,16,5.4,15
2014/5/23 4:06,3.2,16,3.2,16,9.7,15
2014/5/23 4:07,3.5,16,3.5,16,6.2,15
2014/5/23 4:08,3.8,16,3.8,16,9,16
2014/5/23 4:09,4,16,4,16,6.9,15
2014/5/23 4:10,4.4,16,4.4,16,8.7,16
2014/5/23 4:11,4.5,16,4.5,16,9.7,16
2014/5/23 4:12,4.6,16,4.6,16,7.6,15
2014/5/23 4:13,4.6,15,4.7,16,6.5,16
2014/5/23 4:14,4.7,15,4.7,16,7.4,16
2014/5/23 4:15,4.8,15,4.8,15,8.7,15
2014/5/23 4:16,4.8,15,4.8,15,8.9,14
2014/5/23 4:17,4.8,15,4.9,15,8.4,14
2014/5/23 4:18,4.6,15,4.8,15,6.2,15
2014/5/23 4:19,4.5,15,4.6,15,6.8,16
2014/5/23 4:20,4.5,15,4.6,15,7.7,15
2014/5/23 4:21,4.2,15,4.5,15,8.5,15
2014/5/23 4:22,4.4,15,4.4,15,8.3,16
2014/5/23 4:23,4.6,15,4.6,15,9.8,14
2014/5/23 4:24,4.7,15,4.7,15,9.1,15
2014/5/23 4:25,4.9,15,4.9,15,11,15
2014/5/23 4:26,5,15,5,15,8.4,15
2014/5/23 4:27,5.1,15,5.1,15,13,16
2014/5/23 4:28,5.1,15,5.1,15,7.4,15
2014/5/23 4:29,5.4,15,5.4,15,9.8,16
2014/5/23 4:30,5.4,16,5.4,15,8.9,16
2014/5/23 4:31,5.5,16,5.5,16,7.1,16
2014/5/23 4:32,5.4,16,5.4,16,7.2,16
2014/5/23 4:33,5.3,16,5.4,16,7.9,16
2014/5/23 4:34,5.1,16,5.2,16,9.8,15
2014/5/23 4:35,4.8,16,5,16,8.4,15
2014/5/23 4:36,4.6,16,4.8,16,6.4,16
2014/5/23 4:37,4.4,16,4.6,16,7.5,15
2014/5/23 4:38,4.6,16,4.7,16,9.5,16
2014/5/23 4:39,4.5,16,4.6,16,7.4,15
2014/5/23 4:40,4.3,16,4.5,16,5.5,13
2014/5/23 4:41,4.4,16,4.4,16,9.4,14
2014/5/23 4:42,4.4,16,4.4,16,10.5,16
2014/5/23 4:43,4.5,16,4.5,16,9.9,16
2014/5/23 4:44,4.7,16,4.8,16,7.8,16
2014/5/23 4:45,4.9,16,4.9,16,8.7,15
2014/5/23 4:46,4.8,15,4.8,16,6.7,16
2014/5/23 4:47,5,16,5,15,9,15
2014/5/23 4:48,5,15,5.1,16,8.2,16
2014/5/23 4:49,5.1,15,5.1,16,8.1,16
2014/5/23 4:50,5.2,16,5.3,15,8.7,16
2014/5/23 4:51,5.3,16,5.3,15,7.8,15
2014/5/23 4:52,5.2,16,5.4,16,6.7,16
2014/5/23 4:53,5.2,16,5.2,16,8.4,15
2014/5/23 4:54,5,15,5.2,16,6.8,15
2014/5/23 4:55,4.8,16,5,16,5.8,16
2014/5/23 4:56,4.5,16,4.9,16,2.5,1
2014/5/23 4:57,4.5,16,4.6,16,8.5,16
2014/5/23 4:58,4.6,16,4.6,16,9.7,15
2014/5/23 4:59,4.5,16,4.6,16,7.5,15
2014/5/23 5:00,4.4,16,4.5,16,6.4,16
2014/5/23 5:01,4.1,16,4.3,16,6.9,14
2014/5/23 5:02,4,16,4.1,16,4.2,16
2014/5/23 5:03,3.9,16,4,16,8.3,1
2014/5/23 5:04,3.7,16,3.8,15,5.7,1
2014/5/23 5:05,3.9,16,3.9,16,9.2,1
2014/5/23 5:06,4.4,16,4.4,16,10.5,15
2014/5/23 5:07,4.2,16,4.5,16,9.9,15
2014/5/23 5:08,4.2,16,4.2,16,9.4,15
2014/5/23 5:09,4.2,16,4.3,16,9.7,16
2014/5/23 5:10,4.5,16,4.5,16,9,14
2014/5/23 5:11,4.5,16,4.5,16,9.2,16
2014/5/23 5:12,4.7,16,4.7,16,7.9,16
2014/5/23 5:13,4.7,16,4.8,16,9.2,16
2014/5/23 5:14,4.7,16,4.7,16,4.9,15
2014/5/23 5:15,4.4,16,4.7,16,3.7,16
2014/5/23 5:16,4.3,16,4.5,16,8.4,1
2014/5/23 5:17,4.3,16,4.3,16,6.3,16
2014/5/23 5:18,4.1,16,4.4,16,6.2,15
2014/5/23 5:19,4,16,4.1,16,5.4,1
2014/5/23 5:20,3.7,16,4,16,5.8,16
2014/5/23 5:21,3.8,16,3.8,16,7,16
2014/5/23 5:22,3.7,15,3.8,16,5.8,13
2014/5/23 5:23,3.6,15,3.7,16,5.2,15
2014/5/23 5:24,3.5,15,3.6,16,3.9,13
2014/5/23 5:25,3.5,15,3.5,16,3.2,15
2014/5/23 5:26,3.3,15,3.5,16,7.4,14
2014/5/23 5:27,3.4,14,3.4,16,6.9,16
2014/5/23 5:28,3.4,14,3.4,16,6.1,10
2014/5/23 5:29,3.3,14,3.4,16,3.5,15
2014/5/23 5:30,3.1,14,3.2,16,4.2,16
2014/5/23 5:31,3,14,3.1,16,7,9
2014/5/23 5:32,3.2,14,3.2,15,10.2,15
2014/5/23 5:33,3.3,14,3.3,15,11.9,15
2014/5/23 5:34,3.3,14,3.4,15,8.4,15
2014/5/23 5:35,3.5,14,3.5,15,6.4,15
2014/5/23 5:36,3.4,14,3.5,14,4.8,15
2014/5/23 5:37,3.2,14,3.4,14,5.5,16
2014/5/23 5:38,3.3,15,3.3,14,7.8,15
2014/5/23 5:39,3.4,15,3.4,14,6.8,16
2014/5/23 5:40,3.7,15,3.7,15,9.3,16
2014/5/23 5:41,3.8,15,3.8,15,6.9,14
2014/5/23 5:42,3.6,15,3.8,15,5.2,16
2014/5/23 5:43,3.4,15,3.6,15,4.4,13
2014/5/23 5:44,3.6,15,3.6,15,10.3,14
2014/5/23 5:45,3.7,15,3.7,15,7.8,16
2014/5/23 5:46,4.1,15,4.1,15,9.1,14
2014/5/23 5:47,4.5,15,4.5,15,10.5,15
2014/5/23 5:48,4.4,15,4.5,15,6.3,16
2014/5/23 5:49,4.4,15,4.4,15,6.1,15
2014/5/23 5:50,4.1,15,4.4,15,5.4,16
2014/5/23 5:51,3.8,15,4.1,15,2.7,9
2014/5/23 5:52,3.5,15,3.8,15,1.6,1
2014/5/23 5:53,3.5,15,3.5,15,5.2,15
2014/5/23 5:54,3.2,16,3.5,15,2.7,16
2014/5/23 5:55,3.1,16,3.2,15,5.1,2
2014/5/23 5:56,2.6,16,3,15,3.1,4
2014/5/23 5:57,2.1,1,2.6,15,2,2
2014/5/23 5:58,1.9,1,2.1,15,2.4,4
2014/5/23 5:59,1.7,2,1.8,15,2.7,3
2014/5/23 6:00,1.7,2,1.7,15,2.7,2
2014/5/23 6:01,1.6,2,1.7,15,1,15
2014/5/23 6:02,1.6,2,1.6,15,0.5,6
2014/5/23 6:03,1.5,2,1.6,15,2,16
2014/5/23 6:04,1.4,2,1.5,16,2.4,16
2014/5/23 6:05,1.1,2,1.4,16,2.4,13
2014/5/23 6:06,1.3,1,1.3,16,4.9,14
2014/5/23 6:07,1.5,16,1.5,1,4.8,15
2014/5/23 6:08,1.7,16,1.7,1,5.8,16
2014/5/23 6:09,2,15,2,15,6.8,14
2014/5/23 6:10,2.1,15,2.1,15,3.3,16
2014/5/23 6:11,2.1,15,2.1,15,1.6,16
2014/5/23 6:12,2.1,15,2.1,15,1.5,14
2014/5/23 6:13,2.1,15,2.1,15,1.9,15
2014/5/23 6:14,2.1,15,2.1,15,2,16
2014/5/23 6:15,2.1,15,2.2,15,3.6,14
2014/5/23 6:16,1.9,15,2.1,15,2.1,16
2014/5/23 6:17,1.8,15,1.9,15,2.1,2
2014/5/23 6:18,1.6,15,1.8,15,4.4,16
2014/5/23 6:19,1.4,15,1.6,15,3,16
2014/5/23 6:20,1.4,15,1.4,15,3.7,16
2014/5/23 6:21,1.6,15,1.6,15,5.2,16
2014/5/23 6:22,1.9,15,1.9,15,5.2,14
2014/5/23 6:23,2.2,16,2.2,15,7.6,15
2014/5/23 6:24,2.4,16,2.4,16,7,16
2014/5/23 6:25,2.6,16,2.6,16,5.1,15
2014/5/23 6:26,2.5,16,2.6,16,2.9,15
2014/5/23 6:27,2.6,16,2.6,16,2.7,2
2014/5/23 6:28,2.5,16,2.6,16,3.9,2
2014/5/23 6:29,2.4,16,2.5,16,2.5,13
2014/5/23 6:30,2.4,16,2.4,16,2.6,16
2014/5/23 6:31,2.4,16,2.4,16,6,16
2014/5/23 6:32,2.5,16,2.5,16,7.4,16
2014/5/23 6:33,2.5,16,2.6,16,7.2,15
2014/5/23 6:34,2.4,16,2.5,16,4.7,16
2014/5/23 6:35,2.3,16,2.4,16,4.9,16
2014/5/23 6:36,2.4,16,2.4,16,3.9,16
2014/5/23 6:37,2.4,16,2.4,16,4.2,16
2014/5/23 6:38,2.6,16,2.6,16,4.8,1
2014/5/23 6:39,2.8,16,2.8,16,5.7,16
2014/5/23 6:40,2.8,16,2.9,16,4.3,15
2014/5/23 6:41,2.7,16,2.8,16,4.9,8
2014/5/23 6:42,2.4,16,2.7,16,2.4,6
2014/5/23 6:43,2.1,16,2.4,16,2.4,10
2014/5/23 6:44,2,16,2.1,16,2.1,12
2014/5/23 6:45,1.9,14,2,16,3,9
2014/5/23 6:46,1.8,13,1.9,16,3.2,1
2014/5/23 6:47,1.9,14,1.9,16,5.4,1
2014/5/23 6:48,2.1,13,2.1,16,9,16
2014/5/23 6:49,2.3,14,2.3,16,8.9,15
2014/5/23 6:50,2.3,14,2.3,16,4.8,1
2014/5/23 6:51,2.5,15,2.5,16,8.5,15
2014/5/23 6:52,2.8,15,2.8,15,5.4,15
2014/5/23 6:53,2.8,15,2.8,15,2.5,12
2014/5/23 6:54,2.9,15,2.9,15,3.9,15
2014/5/23 6:55,3.1,15,3.1,15,6.9,15
2014/5/23 6:56,3.1,15,3.2,15,3.2,15
2014/5/23 6:57,3,15,3.1,15,3,15
2014/5/23 6:58,2.7,15,3,15,3.5,15
2014/5/23 6:59,2.3,15,2.7,15,2.4,4
2014/5/23 7:00,2.3,16,2.3,15,2.4,4
2014/5/23 7:01,2,16,2.3,15,2.4,4
2014/5/23 7:02,1.8,16,1.9,15,4.1,1
2014/5/23 7:03,1.8,1,1.8,15,2,16
2014/5/23 7:04,1.8,1,1.8,15,3.2,3
2014/5/23 7:05,1.7,2,1.8,15,3,3
2014/5/23 7:06,1.7,2,1.7,15,2.5,2
2014/5/23 7:07,1.7,2,1.7,15,2.6,4
2014/5/23 7:08,1.5,3,1.7,15,1,2
2014/5/23 7:09,1.4,3,1.5,16,1.6,7
2014/5/23 7:10,1.4,3,1.5,16,3.1,8
2014/5/23 7:11,1.4,3,1.4,16,2.4,8
2014/5/23 7:12,1.3,4,1.4,16,2.9,5
2014/5/23 7:13,1.3,4,1.3,1,1.5,6
2014/5/23 7:14,1.2,4,1.3,1,2.5,6
2014/5/23 7:15,1.1,5,1.2,2,2.5,6
2014/5/23 7:16,1,6,1.1,2,1.8,9
2014/5/23 7:17,0.9,6,1,2,2.9,8
2014/5/23 7:18,1.1,7,1.1,3,2.7,10
2014/5/23 7:19,1.2,8,1.2,3,4.3,9
2014/5/23 7:20,1.4,8,1.4,3,4.5,9
2014/5/23 7:21,1.4,8,1.4,3,3,8
2014/5/23 7:22,1.5,9,1.5,8,4.9,12
2014/5/23 7:23,1.8,10,1.8,9,5.2,11
2014/5/23 7:24,1.9,10,1.9,9,3.1,10
2014/5/23 7:25,1.8,10,1.9,9,1.4,5
2014/5/23 7:26,1.9,10,1.9,9,3,4
2014/5/23 7:27,2,10,2,10,3.2,8
2014/5/23 7:28,1.9,10,1.9,10,3.1,7
2014/5/23 7:29,1.9,9,2,10,3.2,6
2014/5/23 7:30,1.8,9,1.9,10,2.6,7
2014/5/23 7:31,1.9,8,1.9,10,3.2,5
2014/5/23 7:32,1.7,7,1.9,10,1.5,7
2014/5/23 7:33,1.4,7,1.7,10,1,10
2014/5/23 7:34,1.4,7,1.4,10,1.4,9
2014/5/23 7:35,1.5,7,1.5,10,3.3,8
2014/5/23 7:36,1.5,7,1.5,10,3.7,9
2014/5/23 7:37,1.7,7,1.7,10,6.1,4
2014/5/23 7:38,1.9,7,1.9,10,6.5,4
2014/5/23 7:39,1.9,6,1.9,9,3.3,15
2014/5/23 7:40,1.9,7,1.9,8,3.9,15
2014/5/23 7:41,1.9,8,1.9,8,3.6,14
2014/5/23 7:42,2,8,2,8,3.6,16
2014/5/23 7:43,2.2,14,2.2,14,3.1,13
2014/5/23 7:44,2.2,16,2.2,14,2.9,14
2014/5/23 7:45,2.5,16,2.5,16,9.3,16
2014/5/23 7:46,2.6,16,2.6,16,5.4,15
2014/5/23 7:47,2.5,15,2.6,16,7.1,15
2014/5/23 7:48,2.7,15,2.7,15,10.8,16
2014/5/23 7:49,3.2,15,3.2,15,12.4,15
2014/5/23 7:50,3.5,15,3.5,15,10.1,15
2014/5/23 7:51,3.7,15,3.7,15,5.8,1
2014/5/23 7:52,3.8,15,3.8,16,5.4,1
2014/5/23 7:53,4,16,4,15,8.3,15
2014/5/23 7:54,4.2,16,4.2,16,5.5,14
2014/5/23 7:55,4.1,16,4.2,16,6.5,15
2014/5/23 7:56,4,16,4.1,16,4.3,15
2014/5/23 7:57,3.9,16,4,16,5.4,16
2014/5/23 7:58,3.7,16,3.9,16,5.4,16
2014/5/23 7:59,3,16,3.7,16,1.5,1
2014/5/23 8:00,2.7,16,3,16,2.7,1
2014/5/23 8:01,2.4,16,2.6,16,2.6,2
2014/5/23 8:02,2.2,16,2.4,16,2.4,15
2014/5/23 8:03,1.9,16,2.2,16,2.2,15
2014/5/23 8:04,1.7,1,1.9,16,3.5,1
2014/5/23 8:05,1.6,1,1.7,16,3.9,1
2014/5/23 8:06,1.6,2,1.7,16,3.3,3
2014/5/23 8:07,1.8,2,1.8,16,5.1,2
2014/5/23 8:08,1.8,2,1.8,16,5.2,2
2014/5/23 8:09,1.9,2,2,16,3.7,16
2014/5/23 8:10,2,2,2,16,3.3,4
2014/5/23 8:11,2.1,2,2.1,16,2.7,2
2014/5/23 8:12,2.4,2,2.4,2,6,3
2014/5/23 8:13,2.5,2,2.5,2,5,4
2014/5/23 8:14,2.7,2,2.7,2,5.2,1
2014/5/23 8:15,2.7,2,2.8,2,5.5,14
2014/5/23 8:16,2.7,2,2.7,2,3.2,1
2014/5/23 8:17,2.7,2,2.7,2,4.8,16
2014/5/23 8:18,2.6,1,2.7,2,3.9,16
2014/5/23 8:19,2.6,1,2.6,2,3,10
2014/5/23 8:20,2.5,1,2.6,2,3.9,9
2014/5/23 8:21,2.5,15,2.5,2,3.8,11
2014/5/23 8:22,2.3,14,2.5,2,3.1,12
2014/5/23 8:23,2.1,14,2.3,2,1.4,1
2014/5/23 8:24,2,14,2.1,2,2.1,2
2014/5/23 8:25,1.8,14,1.9,2,1.5,2
2014/5/23 8:26,1.7,14,1.8,2,1.9,15
2014/5/23 8:27,1.6,14,1.7,2,2.5,1
2014/5/23 8:28,1.5,14,1.6,1,2.7,14
2014/5/23 8:29,1.4,14,1.5,1,1.9,14
2014/5/23 8:30,1.4,15,1.5,1,2.2,14
2014/5/23 8:31,1.3,15,1.4,15,2.4,13
2014/5/23 8:32,1.3,15,1.3,14,1.6,13
2014/5/23 8:33,1.3,14,1.3,14,1.5,12
2014/5/23 8:34,1.3,14,1.3,14,2.2,13
2014/5/23 8:35,1.4,14,1.4,14,2.9,14
2014/5/23 8:36,1.4,14,1.4,14,2.7,15
2014/5/23 8:37,1.4,13,1.4,14,3.9,16
2014/5/23 8:38,1.3,13,1.4,14,3.2,15
2014/5/23 8:39,1.4,13,1.4,14,3,15
2014/5/23 8:40,1.3,14,1.4,15,3,15
2014/5/23 8:41,1.5,14,1.5,14,6,15
2014/5/23 8:42,1.6,14,1.6,14,5.7,15
2014/5/23 8:43,1.6,14,1.6,14,1.6,14
2014/5/23 8:44,1.6,15,1.6,14,2.2,4
2014/5/23 8:45,1.6,15,1.6,14,2.2,3
2014/5/23 8:46,1.6,16,1.6,14,2.2,3
2014/5/23 8:47,1.5,16,1.6,14,1.3,3
2014/5/23 8:48,1.5,16,1.5,14,1.4,15
2014/5/23 8:49,1.4,1,1.5,14,1.5,14
2014/5/23 8:50,1.3,1,1.3,14,1,3
2014/5/23 8:51,1.1,1,1.3,14,0.9,3
2014/5/23 8:52,0.8,2,1.1,14,0.3,9
2014/5/23 8:53,0.8,2,0.8,14,0.9,11
2014/5/23 8:54,0.7,2,0.8,15,0.6,14
2014/5/23 8:55,0.6,2,0.7,16,1.6,1
2014/5/23 8:56,0.6,1,0.6,16,2,2
2014/5/23 8:57,0.7,1,0.7,16,3.2,2
2014/5/23 8:58,0.8,2,0.8,16,2.6,2
2014/5/23 8:59,1.1,2,1.1,1,5.5,2
2014/5/23 9:00,1.2,2,1.2,1,6,4
2014/5/23 9:01,1.4,3,1.4,3,4.3,5
2014/5/23 9:02,1.6,3,1.6,2,4.2,2
2014/5/23 9:03,1.9,3,1.9,3,4.1,3
2014/5/23 9:04,2,3,2,3,3.1,3
2014/5/23 9:05,2.1,3,2.1,3,3.5,1
2014/5/23 9:06,2.1,3,2.2,3,3,2
2014/5/23 9:07,2,3,2.1,3,1,10
2014/5/23 9:08,1.9,2,2,3,1.5,15
2014/5/23 9:09,1.7,2,1.9,3,1.5,14
2014/5/23 9:10,1.5,1,1.7,3,1.5,15
2014/5/23 9:11,1.4,1,1.5,3,2.5,16
2014/5/23 9:12,1.3,1,1.4,3,2.2,3
2014/5/23 9:13,1.1,16,1.3,3,2.5,5
2014/5/23 9:14,1.2,1,1.2,3,3.1,7
2014/5/23 9:15,1.2,1,1.2,3,2.6,3
2014/5/23 9:16,1.1,1,1.2,3,1.6,1
2014/5/23 9:17,1.2,1,1.2,3,3,11
2014/5/23 9:18,1.3,1,1.3,2,3.1,10
2014/5/23 9:19,1.3,2,1.3,2,2.6,11
2014/5/23 9:20,1.4,4,1.4,1,2,11
2014/5/23 9:21,1.3,6,1.4,1,1.6,6
2014/5/23 9:22,1.3,5,1.3,3,1.4,2
2014/5/23 9:23,1.3,5,1.3,3,3.6,1
2014/5/23 9:24,1.3,2,1.4,3,3.1,1
2014/5/23 9:25,1.3,15,1.3,3,2.5,15
2014/5/23 9:26,1.3,14,1.3,3,1.8,1
2014/5/23 9:27,1.2,16,1.3,3,2.4,16
2014/5/23 9:28,1.3,16,1.3,3,2.7,16
2014/5/23 9:29,1.3,16,1.3,3,2.4,14
2014/5/23 9:30,1.3,16,1.3,4,2.5,1
2014/5/23 9:31,1.4,1,1.4,4,1.8,3
2014/5/23 9:32,1.6,1,1.6,1,3.8,4
2014/5/23 9:33,1.7,1,1.7,1,3.3,4
2014/5/23 9:34,1.7,1,1.7,1,2.7,4
2014/5/23 9:35,1.8,2,1.8,2,3.7,5
2014/5/23 9:36,2,2,2,2,4.4,2
2014/5/23 9:37,2.2,2,2.2,2,4.3,3
2014/5/23 9:38,2.2,3,2.3,3,3.8,4
2014/5/23 9:39,2.3,3,2.3,3,4.8,2
2014/5/23 9:40,2.5,3,2.5,3,4.5,3
2014/5/23 9:41,2.6,3,2.6,3,3.8,3
2014/5/23 9:42,2.6,3,2.6,3,3.6,1
2014/5/23 9:43,2.5,3,2.6,3,3.6,2
2014/5/23 9:44,2.6,3,2.6,3,2.9,2
2014/5/23 9:45,2.5,2,2.6,3,2.1,2
2014/5/23 9:46,2.3,2,2.5,3,1.5,2
2014/5/23 9:47,2.1,2,2.3,3,1.5,5
2014/5/23 9:48,2,3,2.1,3,1.5,5
2014/5/23 9:49,1.8,2,1.9,3,2.1,16
2014/5/23 9:50,1.6,2,1.8,3,2.1,16
2014/5/23 9:51,1.4,2,1.6,3,1.8,16
2014/5/23 9:52,1.2,2,1.4,3,1.1,16
2014/5/23 9:53,1,2,1.2,3,0.8,6
2014/5/23 9:54,1,1,1,3,4.1,1
2014/5/23 9:55,1.1,2,1.1,2,3.7,1
2014/5/23 9:56,1.1,2,1.1,2,2.7,5
2014/5/23 9:57,1.2,2,1.2,2,3.5,4
2014/5/23 9:58,1.3,2,1.3,3,2.5,5
2014/5/23 9:59,1.4,2,1.4,2,5.6,3
2014/5/23 10:00,1.6,2,1.6,2,4.4,2
2014/5/23 10:01,1.8,3,1.8,3,5.5,2
2014/5/23 10:02,2.1,3,2.1,3,5.8,1
2014/5/23 10:03,2.5,3,2.5,3,5.7,1
2014/5/23 10:04,2.5,3,2.5,3,2.5,16
2014/5/23 10:05,2.5,2,2.5,3,4.7,16
2014/5/23 10:06,2.5,2,2.6,2,2.5,1
2014/5/23 10:07,2.6,2,2.6,2,6.4,1
2014/5/23 10:08,2.8,1,2.8,1,4.8,3
2014/5/23 10:09,2.8,1,2.9,1,3.9,3
2014/5/23 10:10,2.6,2,2.8,1,2,2
2014/5/23 10:11,2.3,2,2.6,1,1.1,3
2014/5/23 10:12,2.2,2,2.3,1,2.6,3
2014/5/23 10:13,1.8,2,2.1,1,1,2
2014/5/23 10:14,1.9,2,1.9,1,2.5,3
2014/5/23 10:15,1.7,2,1.9,1,1.8,3
2014/5/23 10:16,1.7,2,1.7,1,1.5,16
2014/5/23 10:17,1.5,2,1.7,1,2.5,2
2014/5/23 10:18,1.4,2,1.4,1,3.8,16
2014/5/23 10:19,1.4,2,1.4,1,4.2,16
2014/5/23 10:20,1.5,1,1.5,2,3.9,16
2014/5/23 10:21,1.7,1,1.7,2,3.7,1
2014/5/23 10:22,1.7,1,1.7,2,3.2,15
2014/5/23 10:23,1.9,1,1.9,2,3.7,3
2014/5/23 10:24,1.9,1,1.9,2,4.1,2
2014/5/23 10:25,2.1,1,2.1,1,5,16
2014/5/23 10:26,2.4,1,2.4,1,6.3,1
2014/5/23 10:27,2.7,1,2.7,1,6.3,1
2014/5/23 10:28,3,1,3,1,6.4,16
2014/5/23 10:29,3,1,3,1,5.1,1
2014/5/23 10:30,3,1,3,1,3.7,15
2014/5/23 10:31,3,1,3,1,3.6,16
2014/5/23 10:32,2.9,1,3,1,2.2,16
2014/5/23 10:33,2.8,1,2.9,1,1.4,2
2014/5/23 10:34,2.6,1,2.8,1,1.3,14
2014/5/23 10:35,2.4,16,2.6,1,2,16
2014/5/23 10:36,2.1,16,2.4,1,1.8,14
2014/5/23 10:37,1.8,16,2.1,1,1.6,14
2014/5/23 10:38,1.4,16,1.8,1,0.9,1
2014/5/23 10:39,1.2,15,1.4,1,2.9,14
2014/5/23 10:40,1.4,15,1.4,1,8.2,15
2014/5/23 10:41,1.7,15,1.7,1,8.6,15
2014/5/23 10:42,1.9,15,1.9,1,5.2,1
2014/5/23 10:43,2,15,2,1,2.7,1
2014/5/23 10:44,2.3,15,2.3,1,6,15
2014/5/23 10:45,2.3,15,2.3,16,2.2,1
2014/5/23 10:46,2.5,15,2.5,15,4.2,15
2014/5/23 10:47,2.7,15,2.7,15,5.1,16
2014/5/23 10:48,3,15,3,15,6.4,16
2014/5/23 10:49,3.2,15,3.2,15,6.1,14
2014/5/23 10:50,3.2,15,3.3,15,6,16
2014/5/23 10:51,2.9,15,3.2,15,3.5,15
2014/5/23 10:52,2.7,15,2.9,15,3.2,16
2014/5/23 10:53,2.7,15,2.7,15,3.2,15
2014/5/23 10:54,2.6,15,2.7,15,5.1,15
2014/5/23 10:55,2.9,15,2.9,15,6.3,15
2014/5/23 10:56,3.1,15,3.1,15,6,16
2014/5/23 10:57,3.1,15,3.2,15,6.3,15
2014/5/23 10:58,2.9,15,3.1,15,3.2,16
2014/5/23 10:59,2.6,15,2.9,15,2.5,14
2014/5/23 11:00,2.4,15,2.6,15,2,15
2014/5/23 11:01,2.3,15,2.4,15,1.8,16
2014/5/23 11:02,2.3,16,2.3,15,1.8,16
2014/5/23 11:03,2.2,16,2.2,15,2.1,15
2014/5/23 11:04,2.1,16,2.2,15,3.1,16
2014/5/23 11:05,2,16,2.1,15,5.1,16
2014/5/23 11:06,1.8,16,2,15,4.7,15